Location: Bun Machan
(52.1403°N, 7.3744°W)
Time: 18:03:25
(UTC+00:00)

Meteor 1-10 Rocket - Pass Details

Date: 14 July 2020
Orbit: 835 x 911 km, 81.3° (Epoch: 13 August)

Event Time Altitude Azimuth Distance (km) Brightness Sun altitude
Rises 00:23:51 0° 344° (NNW) 3,408 9.0 -16.2°
Reaches altitude 10° 00:26:17 10° 342° (NNW) 2,465 7.8 -16.2°
Maximum altitude 00:31:46 62° 263° (W) 939 4.4 -16.2°
Enters shadow 00:34:55 26° 191° (S) 1,611 5.1 -16.2°
